[[{"header":{"parameterUnit":"m.s-1","parameterCategory":2,"la1":30.2992,"la2":30.254,"lo1":-89.0895,"lo2":-89.0443,"dy":0.0025,"dx":0.0025,"nx":19,"ny":19,"refTime":"2026-03-31T09:00:00:Z","depth":"0","parameterNumber":2,"parameterNumberName":"U-component_of_CURRENTS"},"data":[0,0,0,0.0542,0.0542,0.0534,0.0534,0.0549,0.0549,0,0,0,0,0,0,0,0,0,0,0,0.0545,0.0545,0.0542,0.0542,0.0534,0.0534,0.0549,0.0549,0,0,0,0,0,0,0,0,0,0,0,0.0545,0.0545,0.0545,0.0542,0.0534,0.0534,0.0549,0.0548,0,0,0,0,0,0,0,0,0,0,0.0552,0.0555,0.0545,0.0545,0.0542,0.0534,0.0534,0.0548,0.0548,0.0559,0,0.0559,0,0.0555,0.055,0.0551,0,0,0,0.054,0.0555,0.055,0.0545,0.0542,0.0534,0.0537,0.0548,0.0548,0.056,0.0559,0.0559,0.0556,0.0551,0.0551,0.0618,0.0618,0,0,0.0541,0.0547,0.0549,0.055,0.0541,0.0538,0.0537,0.0548,0.0551,0.0559,0.0559,0.0556,0.0551,0.0551,0.0617,0.0618,0,0,0,0.0543,0.0547,0.0541,0.055,0.0547,0.0537,0.0537,0.0551,0.0548,0.0559,0.0556,0.0551,0.0551,0.0617,0.0617,0.0655,0,0,0,0.0543,0.0548,0.0542,0.0545,0.0547,0.0546,0.054,0.0547,0.0548,0.0556,0.0551,0.0551,0.0616,0.0617,0.0653,0.0686,0,0,0,0.0545,0.0549,0.0547,0.0546,0.0543,0.0546,0.0544,0.0547,0.0546,0.0551,0.0552,0.0616,0.0617,0.0651,0.0682,0.078,0,0,0,0.0552,0.0551,0.0547,0.0543,0.0543,0.0549,0.0544,0.0546,0.055,0.0551,0.0616,0.0617,0.065,0.068,0.0776,0.0961,0.0992,0,0,0.0553,0.0551,0.0547,0.0543,0.0554,0.0549,0.058,0.0579,0.0578,0.0612,0.0614,0.0654,0.0682,0.0779,0.1036,0.1066,0,0,0,0.0548,0.0554,0.0552,0.0559,0.0558,0.0592,0.059,0.0609,0.0644,0.0587,0.067,0.0687,0.0747,0.0851,0.0875,0.0925,0.0623,0.0623,0.0623,0.0574,0.057,0.0582,0.0588,0.0599,0.0627,0.0659,0.0692,0.0672,0.0704,0.0729,0.0845,0.0955,0.0975,0.1023,0.0733,0.0733,0.0734,0.0734,0.0601,0.0613,0.0622,0.0636,0.0665,0.0698,0.0749,0.0756,0.0844,0.0792,0.0848,0.0899,0.1004,0.1046,0.0736,0.0736,0.0736,0.0735,0.0735,0.0631,0.0639,0.065,0.0687,0.0731,0.0756,0.0849,0.0865,0.09,0.0944,0.1101,0.1102,0.1134,0.0987,0.0988,0.0989,0.0989,0.099,0.099,0.0662,0.0674,0.0709,0.074,0.0769,0.0828,0.0917,0.1003,0.115,0.1186,0.1188,0.1204,0.0923,0.0907,0.0999,0.0997,0.0996,0.0995,0.0995,0.0699,0.071,0.0759,0.0791,0.086,0.0949,0.1033,0.1296,0.14,0.1525,0.1549,0.1331,0.1352,0.1335,0.133,0.1526,0.1526,0.1526,0.1526,0.0728,0.0734,0.0807,0.0862,0.0937,0.1007,0.1253,0.1469,0.1712,0.1822,0.1791,0.1759,0.1736,0.1773,0.1746,0.1747,0.2044,0.2044,0.2044,0.0759,0.0776,0.0831,0.0882,0.0965,0.1086,0.1308,0.1554,0.1922,0.206,0.1825,0.1804,0.174,0.1699,0.1736,0.1693,0.1685,0,0]},{"header":{"parameterUnit":"m.s-1","parameterCategory":2,"la1":30.2992,"la2":30.254,"lo1":-89.0895,"lo2":-89.0443,"dy":0.0025,"dx":0.0025,"nx":19,"ny":19,"refTime":"2026-03-31T09:00:00:Z","depth":"0","parameterNumber":3,"parameterNumberName":"V-component_of_CURRENTS"},"data":[0,0,0,-0.0115,-0.0115,-0.0142,-0.0142,-0.0169,-0.017,0,0,0,0,0,0,0,0,0,0,0,-0.0106,-0.0107,-0.0115,-0.0116,-0.0142,-0.0142,-0.0169,-0.017,0,0,0,0,0,0,0,0,0,0,0,-0.0106,-0.0107,-0.0107,-0.0116,-0.0142,-0.0142,-0.0169,-0.0151,0,0,0,0,0,0,0,0,0,0,-0.0126,-0.0117,-0.0107,-0.0107,-0.0116,-0.0142,-0.0142,-0.015,-0.0152,-0.0156,0,-0.0162,0,-0.0167,-0.0171,-0.0172,0,0,0,-0.0115,-0.0116,-0.0125,-0.0107,-0.0116,-0.0142,-0.013,-0.0151,-0.0153,-0.0158,-0.0162,-0.0163,-0.0167,-0.0172,-0.0172,-0.0162,-0.0161,0,0,-0.0113,-0.0109,-0.0123,-0.0126,-0.0126,-0.0129,-0.0131,-0.0153,-0.0155,-0.0162,-0.0164,-0.0167,-0.0172,-0.0172,-0.0162,-0.0162,0,0,0,-0.011,-0.0108,-0.0117,-0.0125,-0.0131,-0.013,-0.0132,-0.0154,-0.0157,-0.0164,-0.0168,-0.0172,-0.0172,-0.0162,-0.0162,-0.0133,0,0,0,-0.0109,-0.0106,-0.0116,-0.0113,-0.013,-0.0143,-0.0132,-0.0156,-0.0159,-0.0168,-0.0172,-0.0172,-0.0163,-0.0162,-0.0134,-0.0119,0,0,0,-0.0105,-0.0105,-0.011,-0.0113,-0.0125,-0.0143,-0.0148,-0.0157,-0.0161,-0.0172,-0.0173,-0.0163,-0.0162,-0.0136,-0.0121,-0.0075,0,0,0,-0.0097,-0.0104,-0.011,-0.0116,-0.0125,-0.0127,-0.0148,-0.0152,-0.016,-0.0172,-0.0163,-0.0162,-0.0136,-0.0123,-0.0077,0.01,0.0123,0,0,-0.0101,-0.0104,-0.0107,-0.0112,-0.0105,-0.0123,-0.0111,-0.0131,-0.0149,-0.0156,-0.0156,-0.0134,-0.0122,-0.0076,0.0141,0.0163,0,0,0,-0.0104,-0.0106,-0.0104,-0.0103,-0.0105,-0.0091,-0.0111,-0.0116,-0.0122,-0.0151,-0.0127,-0.012,-0.0092,0.001,0.0028,-0.0029,-0.0159,-0.0159,-0.0159,-0.0106,-0.0101,-0.0089,-0.0079,-0.0075,-0.0071,-0.0066,-0.0075,-0.0099,-0.0093,-0.0092,-0.0031,0.0079,0.0094,0.0032,-0.0088,-0.0088,-0.0088,-0.0088,-0.0094,-0.0079,-0.0066,-0.0053,-0.0034,-0.0025,-0.0021,-0.0032,-0.0021,-0.0055,-0.0029,0.0042,0.0115,0.0042,-0.0086,-0.0086,-0.0086,-0.0086,-0.0087,-0.0088,-0.0073,-0.0067,-0.0029,-0.0004,0.0008,0.0057,0.0027,0.0014,0.0028,0.0157,0.0158,0.0091,0.0049,0.0049,0.0049,0.005,0.005,0.005,-0.0073,-0.0061,-0.0026,-0.0,0.0026,0.0063,0.0097,0.0145,0.0213,0.0212,0.0214,0.0123,0.0011,0.0003,0.0054,0.0054,0.0053,0.0053,0.0052,-0.0043,-0.0038,0.0014,0.0044,0.0115,0.0231,0.0247,0.0437,0.0454,0.0538,0.0376,0.0321,0.0334,0.0322,0.0322,0.0453,0.0453,0.0453,0.0453,-0.0014,-0.001,0.0077,0.0137,0.0219,0.0312,0.0605,0.0748,0.0705,0.0641,0.0502,0.0494,0.048,0.0497,0.0481,0.0481,0.0649,0.0649,0.0649,0.0032,0.0048,0.0122,0.0178,0.0272,0.0459,0.0803,0.106,0.0895,0.0639,0.0381,0.0373,0.0334,0.0318,0.032,0.0302,0.0294,0,0]}],[{"header":{"parameterUnit":"m.s-1","parameterCategory":2,"la1":30.2992,"la2":30.254,"lo1":-89.0895,"lo2":-89.0443,"dy":0.0025,"dx":0.0025,"nx":19,"ny":19,"refTime":"2026-03-31T09:00:00:Z","depth":"2","parameterNumber":2,"parameterNumberName":"U-component_of_CURRENTS"},"data":[0,0,0,0.0627,0.0627,0.0621,0.0621,0.0641,0.0641,0,0,0,0,0,0,0,0,0,0,0,0.0629,0.0629,0.0627,0.0627,0.0621,0.0621,0.0641,0.0641,0,0,0,0,0,0,0,0,0,0,0,0.0629,0.0629,0.0629,0.0627,0.0621,0.0621,0.0641,0.0638,0,0,0,0,0,0,0,0,0,0,0.0641,0.0642,0.0629,0.0629,0.0627,0.0621,0.0621,0.0638,0.0638,0.0652,0,0.065,0,0.0647,0.0643,0.0643,0,0,0,0.0627,0.0641,0.0637,0.0629,0.0627,0.0621,0.0623,0.0638,0.0639,0.0653,0.065,0.0651,0.0648,0.0643,0.0643,0.0715,0.0716,0,0,0.0627,0.0632,0.0636,0.0637,0.0625,0.0624,0.0623,0.0638,0.0641,0.065,0.0651,0.0648,0.0643,0.0644,0.0714,0.0715,0,0,0,0.0628,0.0632,0.0627,0.0637,0.0634,0.0624,0.0623,0.0641,0.0638,0.0651,0.0648,0.0644,0.0644,0.0714,0.0715,0.0749,0,0,0,0.0629,0.0633,0.0627,0.063,0.0633,0.0634,0.0625,0.0637,0.0638,0.0648,0.0644,0.0644,0.0713,0.0714,0.0747,0.0778,0,0,0,0.0629,0.0633,0.0631,0.063,0.0627,0.0634,0.0632,0.0637,0.0637,0.0643,0.0644,0.0713,0.0714,0.0745,0.0774,0.0869,0,0,0,0.0636,0.0636,0.0632,0.0628,0.0627,0.0635,0.0632,0.0635,0.0641,0.0644,0.0713,0.0715,0.0744,0.0771,0.0865,0.1048,0.1079,0,0,0.0638,0.0636,0.0633,0.0629,0.064,0.0635,0.0668,0.067,0.067,0.0709,0.071,0.0748,0.0774,0.0868,0.1125,0.1153,0,0,0,0.0635,0.064,0.0638,0.0645,0.0646,0.0679,0.068,0.07,0.0737,0.068,0.0765,0.0781,0.084,0.0943,0.0966,0.0721,0.0721,0.0721,0.072,0.0657,0.0654,0.0667,0.0675,0.0686,0.0716,0.0749,0.0784,0.0766,0.0798,0.0821,0.0934,0.1043,0.1063,0.0827,0.0827,0.0827,0.0827,0.0827,0.0684,0.0696,0.0705,0.072,0.075,0.0784,0.0838,0.0846,0.0934,0.0884,0.0939,0.0988,0.1091,0.083,0.083,0.0829,0.0829,0.0829,0.0829,0.071,0.072,0.0729,0.0766,0.081,0.0837,0.093,0.0948,0.0985,0.1028,0.1183,0.1184,0.0976,0.1069,0.107,0.107,0.1071,0.1071,0.1072,0.074,0.0752,0.0785,0.0815,0.0843,0.0901,0.0992,0.108,0.1226,0.1263,0.1265,0.1017,0.1009,0.0992,0.108,0.1079,0.1078,0.1077,0.1076,0.0777,0.0786,0.0833,0.0863,0.0931,0.1021,0.1105,0.1369,0.1473,0.1599,0.1418,0.1407,0.1429,0.1412,0.1406,0.1596,0.1596,0.1596,0.1596,0.0805,0.0811,0.088,0.0932,0.1006,0.1079,0.1323,0.1484,0.162,0.1619,0.1616,0.1562,0.1545,0.1566,0.1545,0.1539,0.1763,0.1763,0.1762,0.0837,0.0853,0.0905,0.0953,0.1034,0.116,0.1378,0.1492,0.1594,0.175,0.1451,0.1645,0.156,0.1534,0.1557,0.1527,0.1513,0,0]},{"header":{"parameterUnit":"m.s-1","parameterCategory":2,"la1":30.2992,"la2":30.254,"lo1":-89.0895,"lo2":-89.0443,"dy":0.0025,"dx":0.0025,"nx":19,"ny":19,"refTime":"2026-03-31T09:00:00:Z","depth":"2","parameterNumber":3,"parameterNumberName":"V-component_of_CURRENTS"},"data":[0,0,0,-0.0175,-0.0175,-0.0201,-0.0201,-0.0227,-0.0228,0,0,0,0,0,0,0,0,0,0,0,-0.0166,-0.0167,-0.0175,-0.0175,-0.0201,-0.0201,-0.0227,-0.0228,0,0,0,0,0,0,0,0,0,0,0,-0.0166,-0.0167,-0.0167,-0.0176,-0.0201,-0.0201,-0.0227,-0.021,0,0,0,0,0,0,0,0,0,0,-0.0185,-0.0177,-0.0167,-0.0167,-0.0176,-0.0201,-0.0201,-0.0209,-0.0211,-0.0214,0,-0.022,0,-0.0224,-0.0229,-0.0229,0,0,0,-0.0175,-0.0175,-0.0184,-0.0167,-0.0176,-0.0201,-0.0189,-0.021,-0.0212,-0.0217,-0.022,-0.0221,-0.0225,-0.0229,-0.023,-0.0216,-0.0216,0,0,-0.0174,-0.0169,-0.0183,-0.0186,-0.0185,-0.0189,-0.019,-0.0211,-0.0213,-0.022,-0.0222,-0.0225,-0.023,-0.023,-0.0216,-0.0216,0,0,0,-0.017,-0.0168,-0.0176,-0.0184,-0.019,-0.0189,-0.0191,-0.0212,-0.0216,-0.0222,-0.0225,-0.023,-0.023,-0.0217,-0.0216,-0.0187,0,0,0,-0.0169,-0.0166,-0.0176,-0.0173,-0.0189,-0.0202,-0.0191,-0.0214,-0.0217,-0.0225,-0.023,-0.023,-0.0217,-0.0216,-0.0189,-0.0171,0,0,0,-0.0165,-0.0165,-0.0169,-0.0173,-0.0184,-0.0201,-0.0206,-0.0215,-0.0219,-0.0229,-0.023,-0.0217,-0.0217,-0.019,-0.0174,-0.0128,0,0,0,-0.0157,-0.0163,-0.0169,-0.0174,-0.0184,-0.0185,-0.0206,-0.021,-0.0216,-0.023,-0.0217,-0.0216,-0.019,-0.0175,-0.013,0.0022,0.0044,0,0,-0.016,-0.0164,-0.0166,-0.0171,-0.0162,-0.0181,-0.0167,-0.0188,-0.0204,-0.0211,-0.0211,-0.0188,-0.0174,-0.0128,0.0068,0.0088,0,0,0,-0.0163,-0.0164,-0.0162,-0.016,-0.016,-0.0146,-0.0166,-0.0171,-0.0176,-0.0205,-0.018,-0.0172,-0.0144,-0.0056,-0.004,-0.0212,-0.0213,-0.0213,-0.0213,-0.0163,-0.0158,-0.0145,-0.0135,-0.013,-0.0124,-0.0118,-0.0126,-0.0151,-0.0143,-0.0142,-0.008,0.0014,0.0028,-0.0138,-0.0138,-0.0138,-0.0138,-0.0138,-0.015,-0.0137,-0.0122,-0.0108,-0.0088,-0.0078,-0.0071,-0.0082,-0.0068,-0.0103,-0.0077,-0.0023,0.0048,-0.0135,-0.0136,-0.0136,-0.0137,-0.0137,-0.0137,-0.0145,-0.0131,-0.0123,-0.0085,-0.0059,-0.0045,0.0006,-0.002,-0.0032,-0.0017,0.0093,0.0095,-0.0055,0.0002,0.0002,0.0002,0.0003,0.0003,0.0003,-0.0131,-0.0118,-0.0084,-0.0057,-0.0031,0.0008,0.0047,0.0094,0.0154,0.0149,0.015,-0.0032,-0.0037,-0.0046,0.0007,0.0007,0.0006,0.0006,0.0005,-0.0103,-0.0096,-0.0046,-0.0016,0.0054,0.0162,0.0186,0.0365,0.0383,0.0458,0.0254,0.0247,0.0257,0.0246,0.0243,0.0369,0.0369,0.0369,0.0369,-0.0076,-0.0071,0.0015,0.0073,0.0153,0.0237,0.0481,0.0535,0.0521,0.0421,0.0417,0.0403,0.039,0.0404,0.0389,0.0387,0.055,0.055,0.055,-0.0032,-0.0015,0.0057,0.0112,0.0203,0.037,0.062,0.0674,0.0551,0.0543,0.0308,0.0408,0.038,0.0362,0.0374,0.0353,0.0347,0,0]}],[{"header":{"parameterUnit":"m.s-1","parameterCategory":2,"la1":30.2992,"la2":30.254,"lo1":-89.0895,"lo2":-89.0443,"dy":0.0025,"dx":0.0025,"nx":19,"ny":19,"refTime":"2026-03-31T09:00:00:Z","depth":"4","parameterNumber":2,"parameterNumberName":"U-component_of_CURRENTS"},"data":[0,0,0,0.0759,0.0763,0.0918,0.0919,0.0996,0.0996,0,0,0,0,0,0,0,0,0,0,0,0.0694,0.0695,0.0759,0.0763,0.0918,0.0919,0.0995,0.0996,0,0,0,0,0,0,0,0,0,0,0,0.0693,0.0695,0.0696,0.0764,0.0918,0.0919,0.0995,0.0905,0,0,0,0,0,0,0,0,0,0,0.0768,0.073,0.0694,0.0696,0.0765,0.0918,0.0919,0.0902,0.091,0.0895,0,0.0929,0,0.0974,0.1,0.1,0,0,0,0.0748,0.0723,0.0771,0.0697,0.0766,0.0918,0.0844,0.0907,0.0917,0.0906,0.0931,0.0935,0.0976,0.1,0.1,0.1089,0.1089,0,0,0.074,0.0713,0.0764,0.0777,0.0818,0.0839,0.0849,0.0915,0.0923,0.0931,0.0938,0.0977,0.1001,0.1001,0.1088,0.1089,0,0,0,0.0725,0.0706,0.0755,0.0772,0.0817,0.0844,0.0855,0.092,0.0938,0.0939,0.0978,0.1001,0.1002,0.1088,0.1088,0.1081,0,0,0,0.0719,0.07,0.0751,0.0735,0.0816,0.0888,0.0858,0.0933,0.0943,0.0977,0.1001,0.1002,0.1087,0.1088,0.108,0.108,0,0,0,0.0685,0.0696,0.0719,0.0733,0.081,0.0889,0.0911,0.0937,0.0967,0.1,0.1002,0.1087,0.1088,0.1079,0.1079,0.1132,0,0,0,0.0644,0.0677,0.0718,0.076,0.0809,0.0912,0.0911,0.0968,0.0997,0.1001,0.1087,0.1088,0.1079,0.1078,0.1131,0.0979,0,0,0,0.0657,0.0678,0.07,0.0741,0.0828,0.0889,0.0974,0.0998,0.1012,0.1052,0.1056,0.1081,0.1079,0.1132,0.1058,0,0,0,0,0.0685,0.0704,0.0735,0.0798,0.0881,0.0962,0.1024,0.1048,0.1084,0.1042,0.111,0.1109,0.1143,0.1051,0.1095,0.1095,0.1094,0.1094,0.1094,0.0684,0.072,0.0761,0.0831,0.0901,0.1012,0.106,0.1108,0.1117,0.1136,0.1125,0.1189,0.1092,0.1148,0.1148,0.1148,0.1148,0.1148,0.1148,0.0686,0.0707,0.0761,0.0816,0.0915,0.1001,0.1103,0.1123,0.119,0.1173,0.1206,0.1075,0.1148,0.1148,0.1148,0.1148,0.1148,0.1148,0.1148,0.0673,0.0687,0.0722,0.0794,0.0882,0.0993,0.1065,0.1123,0.1186,0.1204,0.114,0.1207,0.1186,0.123,0.123,0.123,0.123,0.1231,0.1231,0.0648,0.0678,0.0705,0.0777,0.0828,0.0925,0.1055,0.1103,0.1166,0.1133,0.1214,0.1217,0.1215,0.1193,0.1234,0.1234,0.1233,0.1233,0.1233,0.0637,0.066,0.0682,0.0721,0.0801,0.0833,0.0999,0.106,0.1114,0.1104,0.111,0.1115,0.1113,0.1114,0.1087,0.11,0.1098,0.1096,0,0.0639,0.0644,0.0668,0.0676,0.0692,0.0772,0.0832,0.0917,0.0963,0.0925,0.1071,0.1072,0.1076,0.1067,0.1065,0.103,0,0,0,0.0642,0.065,0.065,0.0639,0.0612,0.069,0.0832,0.0819,0.0996,0.0977,0.1051,0.1063,0.1144,0.1246,0.1256,0.1253,0.1219,0,0]},{"header":{"parameterUnit":"m.s-1","parameterCategory":2,"la1":30.2992,"la2":30.254,"lo1":-89.0895,"lo2":-89.0443,"dy":0.0025,"dx":0.0025,"nx":19,"ny":19,"refTime":"2026-03-31T09:00:00:Z","depth":"4","parameterNumber":3,"parameterNumberName":"V-component_of_CURRENTS"},"data":[0,0,0,-0.017,-0.0172,-0.0301,-0.0301,-0.038,-0.0381,0,0,0,0,0,0,0,0,0,0,0,-0.0127,-0.0128,-0.017,-0.0172,-0.03,-0.0301,-0.038,-0.0381,0,0,0,0,0,0,0,0,0,0,0,-0.0127,-0.0127,-0.0128,-0.0173,-0.03,-0.0301,-0.038,-0.0309,0,0,0,0,0,0,0,0,0,0,-0.0197,-0.0172,-0.0127,-0.0128,-0.0173,-0.03,-0.0301,-0.0307,-0.0313,-0.0292,0,-0.0304,0,-0.0333,-0.0382,-0.0382,0,0,0,-0.0191,-0.0166,-0.0187,-0.0128,-0.0174,-0.03,-0.0248,-0.0311,-0.0319,-0.03,-0.0306,-0.0309,-0.0334,-0.0382,-0.0382,-0.0348,-0.0347,0,0,-0.0184,-0.0165,-0.0182,-0.0192,-0.0196,-0.0244,-0.0252,-0.0317,-0.0325,-0.0306,-0.0312,-0.0335,-0.0382,-0.0383,-0.0348,-0.0348,0,0,0,-0.0151,-0.016,-0.0182,-0.0188,-0.0212,-0.0247,-0.0256,-0.0323,-0.0326,-0.0313,-0.0336,-0.0383,-0.0383,-0.0349,-0.0348,-0.029,0,0,0,-0.0148,-0.0139,-0.0179,-0.0171,-0.0211,-0.0282,-0.026,-0.0322,-0.0331,-0.0336,-0.0383,-0.0383,-0.035,-0.0348,-0.0293,-0.0261,0,0,0,-0.0123,-0.0137,-0.0145,-0.0169,-0.0214,-0.0282,-0.0292,-0.0326,-0.0343,-0.0382,-0.0383,-0.035,-0.0349,-0.0295,-0.0266,-0.021,0,0,0,-0.0108,-0.0116,-0.0145,-0.0151,-0.0213,-0.025,-0.0293,-0.0339,-0.037,-0.0383,-0.0349,-0.0348,-0.0296,-0.0269,-0.0213,-0.0222,0,0,0,-0.0106,-0.0116,-0.0114,-0.0142,-0.0152,-0.0235,-0.024,-0.0304,-0.0337,-0.0327,-0.0327,-0.0292,-0.0266,-0.0211,-0.0145,0,0,0,0,-0.0104,-0.0104,-0.0109,-0.0125,-0.016,-0.0179,-0.026,-0.0266,-0.0282,-0.0346,-0.0281,-0.0266,-0.0234,-0.0248,-0.0342,-0.0342,-0.0342,-0.0342,-0.0342,-0.0087,-0.009,-0.0087,-0.0098,-0.0111,-0.0149,-0.0148,-0.0168,-0.0232,-0.0218,-0.0211,-0.0118,-0.0131,-0.0206,-0.0206,-0.0206,-0.0206,-0.0205,-0.0205,-0.0069,-0.0066,-0.0059,-0.0063,-0.0063,-0.0072,-0.0051,-0.0077,-0.0063,-0.0132,-0.0104,-0.0176,-0.0199,-0.02,-0.0201,-0.0202,-0.0203,-0.0203,-0.0203,-0.0063,-0.0061,-0.0068,-0.0056,-0.0025,-0.0022,0.007,0.0048,0.0003,0.0024,-0.0012,-0.0067,-0.008,0.0015,0.0015,0.0016,0.0016,0.0016,0.0017,-0.0063,-0.0063,-0.0063,-0.004,-0.0016,0.0059,0.0115,0.0145,0.0102,0.0067,0.0022,-0.0044,-0.0051,-0.0067,0.0023,0.0022,0.0021,0.002,0.002,-0.0061,-0.0073,-0.0055,-0.004,0.0054,0.0136,0.0194,0.0226,0.0245,0.0222,0.0105,0.0099,0.0081,0.0071,0.0058,0.0189,0.0189,0.0189,0,-0.0066,-0.0067,-0.0045,0.0008,0.0115,0.0192,0.0266,0.0295,0.0238,0.0216,0.0235,0.0102,0.0096,0.0074,0.0065,0.005,0,0,0,-0.0063,-0.0055,-0.0037,0.0012,0.0134,0.0244,0.0298,0.0284,0.0241,0.0254,0.0196,0.0194,0.012,0.0041,-0.0,-0.0009,-0.0036,0,0]}]]